Starlink 32009

operational
NORAD ID: 60104 Int'l Des: 2024-117 Owner: SPXS Country: US Constellation: starlink
LEOCIRCULAR

关于 Starlink 32009

正在加载描述...

实时位置

正在加载3D地球...

即将过境

高度历史

Altitude vs Time

uPlot chart will show altitude changes over time

两行轨道根数

1 60104U 24117P 25304.63656816 -.00001468 00000-0 -37448-4 0 9992
2 60104 53.1613 276.8365 0001341 96.7512 263.3641 15.30184622 77122
Epoch: Oct 31, 2025 • Age: 7 hours

当前状态

高度 480.3 km
速度 7.63 km/s
星下点 50.44°N, 28.54°W
发射日期 Jun 23, 2024
运行时间 1.3 years
类型 internet

技术详情

分类 Payload
质量 730.00 kg
干质量 700.00 kg
总质量 730.00 kg
长度 0.30 m
直径 4.10 m
跨度 29.00 m
形状 Box + pan
制造商 SPXS
平台类型 Starlink V2M
阶段状态 In Orbit
所有者/国家 SPXS/US

大型星座

Loading constellations...